Find Starlink 4525

NORAD ID: 53401 Int'l Des: 2022-097 Owner: SPXS Country: US Constellation: starlink operational
LEOCIRCULAR

实时位置

正在加载3D地球...

关于 Starlink 4525

正在加载描述...

即将过境

Passes for default location (London). Set your location on the main map for personalized predictions.

高度历史

Loading altitude history...

两行轨道根数

1 53401U 22097P 26121.54252144 .00001347 00000-0 10266-3 0 9995
2 53401 53.2185 246.8566 0001330 90.7431 269.3714 15.08844394206496
Epoch: May 1, 2026 • Age: 5 hours

当前状态

高度 549.8 km
速度 7.59 km/s
星下点 -30.73°S, 95.87°E
发射日期 Aug 10, 2022
运行时间 3.7 years
类型 internet

技术详情

分类 Payload
质量 297.00 kg
干质量 275.00 kg
总质量 297.00 kg
长度 0.20 m
直径 2.80 m
跨度 9.00 m
形状 Box + pan
制造商 SPXS
平台类型 Starlink
阶段状态 In Orbit
所有者/国家 SPXS/US

Most Searched